FW5345 Weather Reports


time (UTC)temp
F
wind
direction
speed
knots
gust
knots
rain 1hr
in
rain 24hr
in
rain mn
in
humidity
%
barometer
mb
20260506091536 47 157 2.6 3.5 0.00 0.00 0.00 93 1016.5
20260506090037 47 161 2.6 3.5 0.00 0.00 0.00 93 1016.5
20260506083151 47 148 1.7 3.5 0.00 0.00 0.00 92 1016.2
20260506081535 48 161 2.6 3.5 0.00 0.00 0.00 92 1016.2
20260506073038 49 157 2.6 3.5 0.00 0.00 0.00 91 1015.9
20260506071643 50 143 1.7 3.5 0.00 0.00 0.00 91 1015.9
20260506050108 55 136 1.7 2.6 0.00 0.00 0.00 80 1015.1
20260506043110 59 118 1.7 1.7 0.00 0.00 0.00 74 1014.9
20260506041609 59 112 0.0 1.7 0.00 0.00 0.00 72 1014.9
20260506040038 60 105 0.0 2.6 0.00 0.00 0.00 70 1014.6
20260506033109 63 24 0.9 2.6 0.00 0.00 0.00 65 1014.0
20260506031628 65 37 0.9 4.3 0.00 0.00 0.00 62 1013.9
20260506030037 66 16 2.6 5.2 0.00 0.00 0.00 61 1013.8
20260506024535 67 16 4.3 7.0 0.00 0.00 0.00 59 1013.5
20260506023034 69 20 5.2 9.6 0.00 0.00 0.00 56 1013.4
20260506021536 70 17 5.2 8.7 0.00 0.00 0.00 55 1013.3
20260506020035 71 18 6.1 9.6 0.00 0.00 0.00 54 1013.2
20260506013034 74 15 6.1 9.6 0.00 0.00 0.00 50 1013.0
20260506010034 76 316 3.5 7.0 0.00 0.00 0.00 46 1012.9
20260506004536 75 305 4.3 10.4 0.00 0.00 0.00 47 1013.0
20260506003035 76 314 4.3 10.4 0.00 0.00 0.00 49 1012.9
20260506001534 75 6 6.1 12.2 0.00 0.00 0.00 53 1012.9
20260506000036 74 18 6.1 12.2 0.00 0.00 0.00 52 1013.0
20260505234534 74 15 6.1 11.3 0.00 0.00 0.00 53 1013.1
20260505233109 74 15 6.1 11.3 0.00 0.00 0.00 53 1013.2
20260505231536 74 12 6.1 10.4 0.00 0.00 0.00 53 1013.2
20260505230036 74 17 5.2 9.6 0.00 0.00 0.00 53 1013.3
20260505223035 73 21 6.1 11.3 0.00 0.00 0.00 53 1013.5
20260505221536 74 11 6.1 9.6 0.00 0.00 0.00 53 1013.6
20260505220110 74 13 5.2 9.6 0.00 0.00 0.00 52 1013.7
20260505214530 73 18 5.2 8.7 0.00 0.00 0.00 53 1013.8
20260505213151 73 9 5.2 9.6 0.00 0.00 0.00 53 1013.9
20260505211535 73 13 6.1 10.4 0.00 0.00 0.00 54 1013.9
20260505210036 72 11 4.3 10.4 0.00 0.00 0.00 54 1014.0
20260505204531 71 9 5.2 8.7 0.00 0.00 0.00 55 1014.2
20260505203110 71 5 5.2 9.6 0.00 0.00 0.00 55 1014.3
20260505201533 71 11 5.2 8.7 0.00 0.00 0.00 55 1014.3
20260505200143 71 3 5.2 10.4 0.00 0.00 0.00 53 1014.3
20260505194531 71 7 4.3 10.4 0.00 0.00 0.00 52 1014.4
20260505193032 70 11 4.3 10.4 0.00 0.00 0.00 54 1014.5
20260505191536 69 27 3.5 8.7 0.00 0.00 0.00 55 1014.6
20260505190035 69 1 3.5 7.0 0.00 0.00 0.00 55 1014.6
20260505184529 68 2 4.3 8.7 0.00 0.00 0.00 55 1014.7
20260505183033 68 9 4.3 8.7 0.00 0.00 0.00 55 1014.8
20260505174530 66 7 3.5 8.7 0.00 0.00 0.00 59 1014.6
20260505173035 66 4 3.5 6.1 0.00 0.00 0.00 60 1014.6
20260505171535 65 354 2.6 6.1 0.00 0.00 0.00 61 1014.6
20260505170032 64 6 2.6 5.2 0.00 0.00 0.00 62 1014.6
20260505164530 63 3 3.5 6.1 0.00 0.00 0.00 64 1014.5
20260505163034 62 356 3.5 7.0 0.00 0.00 0.00 67 1014.5
20260505153035 57 1 2.6 5.2 0.00 0.00 0.00 78 1014.5
20260505150109 55 25 1.7 4.3 0.00 0.00 0.00 80 1014.3
20260505123109 47 154 2.6 4.3 0.00 0.00 0.00 90 1013.3
20260505121532 48 180 2.6 3.5 0.00 0.00 0.00 89 1013.3
20260505120036 48 181 1.7 2.6 0.00 0.00 0.00 89 1013.3
20260505114535 49 166 1.7 3.5 0.00 0.00 0.00 89 1013.2
20260505113029 49 162 1.7 3.5 0.00 0.00 0.00 88 1013.2
20260505111537 49 157 0.9 3.5 0.00 0.00 0.00 86 1013.0
20260505101536 50 166 2.6 3.5 0.00 0.00 0.00 84 1012.8
20260505100036 51 170 1.7 4.3 0.00 0.00 0.00 83 1012.8
20260505094536 52 169 1.7 3.5 0.00 0.00 0.00 80 1012.8